Probability
0 0 0 0 0 0 0 3 3 10 6 10 0 0 0 0 0 0 0 0 0 0 0 0 0 0 0 0 0 0 0 0 0 0 0 0 0 0 0 0 0 0 0
0 0 0 0 0 0 0 0 3 6 3 6 10 6 0 0 0 0 0 0 0 0 0 0 0 0 0 0 0 0 0 0 0 0 0 0 0 0 0 0 0 0 0
0 0 0 0 0 0 0 0 0 0 0 0 6 0 0 0 0 0 0 0 0 0 0 0 0 0 0 0 0 0 0 0 0 0 0 0 0 0 0 0 0 0 0
0 0 0 0 0 0 0 0 0 0 0 0 3 0 0 0 0 0 0 0 0 0 0 0 0 0 0 0 0 0 0 0 0 0 0 0 0 0 0 0 0 0 0
0 0 0 0 0 0 0 0 0 0 0 0 0 0 0 0 0 0 0 0 0 0 0 0 0 0 0 0 0 0 0 0 0 0 0 0 0 0 0 0 0 0 0
0 0 0 0 0 0 0 0 0 0 0 0 0 0 0 0 0 0 0 0 0 0 0 0 0 0 0 0 0 0 0 0 0 0 0 0 0 0 0 0 0 0 0
0 0 0 0 0 0 0 0 0 0 0 0 0 0 0 0 0 0 0 0 0 0 0 0 0 0 0 0 0 0 0 0 0 0 0 0 0 0 0 0 0 0 0
0 0 0 0 0 0 0 0 0 0 0 0 0 0 0 0 0 0 0 0 0 0 0 0 0 0 0 0 0 0 0 0 0 0 0 0 0 0 0 0 0 0 0
0 0 0 0 0 0 0 0 0 0 0 0 0 0 0 0 0 0 0 0 0 0 0 0 0 0 0 0 0 0 0 0 0 0 0 0 0 0 0 0 0 0 0
0 0 0 0 0 0 0 0 0 0 0 0 0 0 0 0 0 0 0 0 0 0 0 0 0 0 0 0 0 0 0 0 0 0 0 0 0 0 0 0 0 0 0
0 0 0 0 0 0 0 0 0 0 0 0 0 0 0 0 0 0 0 0 0 0 0 0 0 0 0 0 0 0 0 0 0 0 0 0 0 0 0 0 0 0 0
0 0 0 0 0 0 0 0 0 0 0 0 0 0 0 0 0 0 0 0 0 0 0 0 0 0 0 0 0 0 0 0 0 0 0 0 0 0 0 0 0 0 0
0 0 0 0 0 0 0 0 0 0 0 0 0 0 0 0 0 0 0 0 0 0 0 0 0 0 0 0 0 0 0 0 0 0 0 0 0 0 0 0 0 0 0
0 0 0 0 0 0 0 0 0 0 0 0 0 0 0 0 0 0 0 0 0 0 0 0 0 0 0 0 0 0 0 0 0 0 0 0 0 0 0 0 0 0 0
0 0 0 0 0 0 0 0 0 0 0 0 0 0 0 0 0 0 0 0 0 0 0 0 0 0 0 0 0 0 0 0 0 0 0 0 0 0 0 0 0 0 0
0 0 0 0 0 0 0 0 0 0 0 0 0 0 0 0 0 0 0 0 0 0 0 0 0 0 0 0 0 0 0 0 0 0 0 0 0 0 0 0 0 0 0
0 0 0 0 0 0 0 0 0 0 0 0 0 0 0 0 0 0 0 0 0 0 0 0 0 0 0 0 0 0 0 0 0 0 0 0 0 0 0 0 0 0 0
0 0 0 0 0 0 0 0 0 0 0 0 0 0 0 0 0 0 0 0 0 0 0 0 0 0 0 0 0 0 0 0 0 0 0 0 0 0 0 0 0 0 0
0 0 0 0 0 0 0 0 0 0 0 0 0 0 0 0 0 0 0 0 0 0 0 0 0 0 0 0 0 0 0 0 0 0 0 0 0 0 0 0 0 0 0
0 0 0 0 0 0 0 0 0 0 0 0 0 0 0 0 0 0 0 0 0 0 0 0 0 0 0 0 0 0 0 0 0 0 0 0 0 0 0 0 0 0 0
0 0 0 0 0 0 0 0 0 0 0 0 0 0 0 0 0 0 0 0 0 0 0 0 0 0 0 0 0 0 0 0 0 0 0 0 0 0 0 0 0 0 0
0 0 0 0 0 0 0 0 0 0 0 0 0 0 0 0 0 0 0 0 0 0 0 0 0 0 0 0 0 0 0 0 0 0 0 0 0 0 0 0 0 0 0
0 0 0 0 0 0 0 0 0 0 0 0 0 0 0 0 0 0 0 0 0 0 0 0 0 0 0 0 0 0 0 0 0 0 0 0 0 0 0 0 0 0 0
0 0 0 0 0 0 0 0 0 0 0 0 0 0 0 0 0 0 0 0 0 0 0 0 0 0 0 0 0 0 0 0 0 0 0 0 0 0 0 0 0 0 0
0 0 0 0 0 0 0 0 0 0 0 0 0 0 0 0 0 0 0 0 0 0 0 0 0 0 0 0 0 0 0 0 0 0 0 0 0 0 0 0 0 0 0
0 0 0 0 0 0 0 0 0 0 0 0 0 0 0 0 0 0 0 0 0 0 0 0 0 0 0 0 0 0 0 0 0 0 0 0 0 0 0 0 0 0 0
Height
5769 5774 5780 5784 5788 5791 5794 5797 5799 5801 5803 5804 5806 5807 5808 5808 5809 5809 5809 5809 5809 5808 5808 5808 5807 5806 5806 5805 5804 5803 5803 5802 5801 5800 5799 5799 5798 5798 5797 5795 5794 5794 5793
5763 5768 5773 5777 5781 5785 5787 5790 5792 5794 5796 5797 5799 5800 5801 5801 5802 5802 5802 5801 5800 5799 5799 5799 5798 5797 5796 5796 5795 5794 5793 5792 5791 5790 5788 5788 5789 5788 5786 5785 5784 5783 5782
5755 5761 5766 5771 5774 5778 5780 5783 5785 5787 5788 5790 5791 5792 5793 5794 5794 5794 5794 5793 5792 5791 5790 5789 5788 5787 5787 5786 5785 5784 5783 5781 5780 5779 5778 5777 5777 5776 5776 5774 5773 5772 5771
5748 5754 5759 5763 5767 5770 5773 5775 5777 5779 5781 5782 5783 5784 5785 5786 5786 5786 5785 5784 5783 5782 5781 5780 5778 5777 5776 5775 5774 5772 5771 5770 5768 5767 5766 5765 5764 5763 5763 5763 5762 5760 5760
5741 5746 5751 5755 5759 5762 5765 5767 5769 5771 5773 5774 5775 5775 5776 5777 5777 5776 5776 5775 5774 5773 5771 5770 5768 5767 5765 5764 5762 5760 5759 5757 5756 5754 5753 5751 5750 5749 5749 5749 5749 5748 5747
5734 5738 5742 5746 5750 5753 5756 5759 5761 5763 5765 5766 5766 5767 5768 5768 5768 5767 5766 5765 5764 5763 5762 5760 5758 5756 5754 5752 5750 5748 5746 5744 5742 5740 5739 5738 5737 5736 5734 5734 5734 5734 5733
5726 5730 5734 5738 5742 5745 5748 5750 5753 5754 5756 5757 5758 5758 5759 5759 5758 5758 5757 5756 5755 5753 5752 5749 5747 5745 5743 5740 5737 5734 5732 5729 5727 5725 5724 5723 5722 5721 5720 5719 5719 5719 5719
5718 5722 5726 5730 5733 5736 5739 5742 5744 5746 5747 5748 5749 5749 5749 5749 5749 5748 5747 5746 5745 5743 5741 5739 5736 5734 5731 5727 5724 5720 5717 5714 5711 5709 5707 5706 5706 5705 5705 5704 5703 5703 5704
5710 5714 5718 5722 5725 5728 5730 5733 5735 5737 5738 5739 5740 5740 5740 5740 5740 5739 5738 5736 5735 5733 5730 5728 5725 5721 5717 5713 5709 5705 5701 5697 5695 5692 5690 5689 5689 5689 5689 5689 5689 5688 5688
5703 5707 5710 5713 5716 5719 5722 5724 5726 5728 5729 5730 5731 5731 5731 5731 5730 5729 5728 5726 5724 5722 5719 5716 5712 5708 5704 5699 5694 5689 5684 5680 5677 5675 5673 5671 5671 5672 5672 5673 5673 5673 5673
5695 5698 5702 5705 5708 5711 5713 5715 5717 5719 5720 5721 5721 5722 5721 5721 5720 5719 5718 5716 5713 5711 5708 5704 5700 5695 5689 5684 5679 5673 5668 5664 5660 5657 5655 5654 5655 5656 5657 5658 5658 5659 5659
5687 5691 5694 5697 5700 5703 5705 5707 5709 5710 5711 5712 5712 5712 5712 5711 5710 5709 5707 5705 5703 5700 5696 5692 5687 5682 5676 5671 5665 5659 5654 5649 5645 5642 5640 5639 5640 5641 5642 5644 5645 5645 5646
5680 5683 5686 5689 5692 5695 5697 5699 5700 5701 5702 5703 5703 5703 5703 5702 5701 5700 5698 5696 5693 5689 5685 5681 5676 5670 5664 5658 5653 5647 5641 5636 5632 5629 5628 5627 5627 5628 5630 5631 5631 5633 5634
5673 5676 5679 5682 5685 5687 5689 5691 5692 5693 5694 5694 5694 5694 5694 5693 5692 5691 5689 5686 5683 5680 5676 5671 5666 5660 5654 5648 5642 5637 5631 5627 5623 5620 5618 5617 5617 5618 5619 5620 5621 5622 5622
5667 5670 5673 5675 5678 5680 5682 5683 5684 5685 5686 5686 5686 5686 5686 5685 5684 5682 5680 5677 5674 5671 5667 5662 5657 5651 5646 5640 5634 5629 5624 5620 5616 5613 5611 5610 5610 5610 5610 5611 5611 5611 5611
5662 5664 5667 5669 5671 5673 5674 5676 5677 5678 5678 5679 5679 5678 5678 5677 5676 5674 5672 5669 5667 5663 5659 5654 5649 5644 5638 5633 5628 5623 5618 5614 5611 5608 5606 5605 5604 5603 5603 5603 5602 5602 5601
5657 5659 5661 5663 5665 5666 5668 5669 5670 5671 5671 5671 5671 5671 5670 5669 5668 5666 5664 5662 5659 5656 5652 5647 5643 5638 5633 5627 5623 5618 5614 5610 5607 5604 5602 5600 5599 5598 5597 5596 5595 5594 5592
5652 5653 5655 5657 5658 5660 5661 5662 5663 5664 5664 5664 5664 5664 5663 5662 5661 5659 5657 5655 5652 5649 5645 5641 5637 5632 5628 5623 5619 5614 5610 5607 5603 5601 5598 5596 5594 5593 5591 5590 5588 5586 5583
5646 5648 5649 5651 5652 5653 5655 5656 5657 5657 5658 5658 5658 5657 5657 5655 5654 5652 5650 5648 5645 5642 5639 5635 5631 5627 5623 5619 5615 5611 5607 5603 5600 5597 5594 5592 5590 5587 5585 5583 5580 5577 5574
5641 5642 5644 5645 5646 5648 5649 5650 5651 5651 5651 5651 5651 5651 5650 5649 5647 5646 5644 5642 5639 5636 5633 5630 5626 5622 5618 5615 5611 5607 5603 5600 5596 5593 5590 5587 5584 5581 5578 5575 5571 5568 5563
5636 5637 5638 5640 5641 5642 5643 5644 5645 5645 5645 5645 5645 5644 5644 5643 5641 5640 5638 5636 5633 5631 5627 5624 5621 5617 5614 5610 5606 5602 5599 5595 5592 5588 5585 5581 5578 5574 5570 5566 5562 5557 5553
5631 5632 5633 5635 5636 5637 5638 5638 5639 5639 5639 5639 5639 5638 5637 5636 5635 5634 5632 5630 5628 5625 5622 5619 5616 5612 5609 5605 5601 5597 5594 5590 5586 5582 5579 5575 5570 5566 5562 5557 5552 5547 5541
5626 5627 5628 5629 5630 5631 5632 5633 5633 5634 5634 5633 5633 5632 5631 5630 5629 5628 5626 5624 5622 5619 5616 5613 5610 5607 5603 5600 5596 5592 5588 5584 5580 5576 5572 5567 5563 5558 5553 5547 5541 5535 5529
5621 5622 5623 5624 5625 5626 5626 5627 5628 5628 5628 5628 5627 5626 5626 5625 5624 5622 5621 5619 5616 5614 5611 5608 5605 5601 5598 5594 5590 5586 5582 5577 5573 5569 5564 5559 5554 5549 5543 5537 5530 5524 5517
5616 5617 5618 5619 5620 5620 5621 5621 5622 5622 5622 5622 5621 5621 5620 5619 5618 5616 5615 5612 5610 5607 5605 5602 5598 5595 5591 5587 5583 5579 5575 5570 5566 5561 5556 5551 5545 5539 5533 5526 5519 5512 5504
5610 5611 5612 5613 5614 5615 5615 5616 5616 5616 5616 5616 5616 5615 5614 5613 5612 5610 5608 5606 5604 5601 5598 5595 5592 5588 5584 5580 5576 5572 5567 5563 5558 5553 5547 5542 5536 5529 5522 5515 5508 5500 5492
Wind_Speed
43 42 41 40 38 38 37 37 37 36 36 36 36 35 35 36 37 37 38 38 39 39 39 40 40 41 41 41 41 41 42 42 43 43 42 42 41 40 39 39 39 39 38
44 43 41 40 39 38 38 38 38 38 37 37 37 37 37 37 38 39 39 40 41 42 42 42 42 43 43 44 44 44 45 45 46 47 47 46 45 44 43 43 43 42 42
44 43 42 41 40 39 38 38 38 39 38 38 38 39 39 39 39 40 41 42 43 44 44 44 45 45 46 46 46 47 48 48 49 50 50 50 48 48 47 46 46 46 45
45 43 42 41 41 40 39 39 38 39 39 39 39 40 40 40 41 42 42 43 44 44 45 46 46 47 48 48 49 50 51 52 52 53 53 53 53 52 50 50 49 49 48
45 43 42 41 40 40 39 39 39 39 39 40 40 40 41 41 41 42 43 43 44 45 46 46 47 48 49 50 52 53 54 54 55 56 55 56 56 56 55 54 53 52 51
43 43 42 41 40 39 39 39 39 39 39 40 40 40 41 41 42 42 43 43 44 45 46 47 48 49 51 52 54 55 56 57 58 58 58 58 59 58 58 58 56 55 54
42 42 41 40 39 39 38 38 38 39 39 39 40 40 41 41 41 42 43 43 44 45 46 48 49 50 51 53 55 57 59 60 60 61 61 61 61 60 60 60 59 58 56
40 40 40 39 39 38 38 38 38 38 38 39 39 39 40 40 41 41 42 43 43 44 46 47 49 50 52 54 57 58 60 61 62 62 62 62 62 61 61 60 60 59 58
38 38 38 38 38 38 37 37 37 37 37 37 38 38 38 39 40 41 41 42 43 44 45 47 48 50 52 54 57 59 60 61 62 63 63 63 63 62 61 60 60 59 59
37 37 37 37 37 37 37 36 36 37 37 37 37 37 38 38 39 40 40 41 42 43 44 45 47 50 52 54 55 56 58 60 61 62 62 62 62 61 60 58 57 58 59
36 36 37 36 36 36 36 36 36 36 36 36 36 36 37 37 38 38 38 39 39 40 42 44 46 48 50 51 52 53 54 56 58 58 58 58 58 57 57 57 56 56 55
35 35 36 36 35 35 35 35 35 35 35 35 35 35 35 35 35 35 36 36 38 39 41 42 44 46 46 47 49 49 49 50 50 50 50 51 51 52 52 53 53 54 54
33 34 34 34 34 34 34 34 34 34 34 34 34 33 33 33 33 33 33 35 36 37 38 40 41 42 42 43 44 44 44 44 43 43 43 43 44 45 46 47 48 50 51
31 32 32 32 32 32 32 32 32 32 32 32 31 31 30 30 30 31 32 32 33 34 35 36 37 38 38 38 39 38 37 37 37 37 37 36 38 39 40 42 43 44 45
28 29 29 30 30 30 30 30 30 29 29 29 28 28 28 28 28 29 29 30 31 32 33 34 34 34 34 34 33 33 33 32 31 30 30 30 32 34 35 37 38 39 41
25 26 27 27 27 27 27 27 27 27 26 26 26 26 27 27 27 27 28 29 29 30 31 31 31 31 31 31 30 29 28 27 26 25 26 26 27 28 29 31 34 36 38
23 24 24 25 25 25 25 25 25 24 24 24 25 25 25 25 26 26 27 27 28 29 28 28 28 28 28 27 26 25 25 23 23 22 22 22 24 25 26 28 30 34 37
22 22 23 23 23 23 23 23 23 22 23 23 24 24 24 24 25 25 26 26 26 26 26 26 26 25 24 24 24 23 22 22 22 22 22 23 24 26 28 29 31 33 36
21 21 21 21 21 21 21 21 21 21 22 22 23 23 23 23 23 24 24 24 24 24 24 24 23 23 23 23 23 23 22 22 22 22 22 23 25 26 27 29 32 34 37
19 20 20 20 20 20 20 20 20 20 21 21 21 22 22 22 23 22 23 23 23 23 23 23 23 23 22 23 23 23 22 22 23 23 23 24 26 27 30 32 34 37 39
19 19 19 19 19 19 19 19 20 20 20 20 20 21 21 22 22 22 22 22 22 22 22 22 22 22 23 23 23 23 23 23 24 25 26 28 29 31 33 35 37 39 42
18 18 18 18 18 18 19 19 19 19 19 19 20 21 21 21 21 21 22 22 22 22 22 22 22 22 23 23 23 24 25 25 26 27 28 30 32 34 36 38 40 42 44
18 17 17 17 17 17 18 18 18 18 19 19 19 20 20 20 20 20 20 21 21 21 22 22 23 23 24 24 24 25 26 27 28 29 30 32 34 36 38 41 43 44 46
18 17 17 17 17 17 17 18 18 18 18 18 18 19 19 19 19 20 20 21 21 22 23 23 24 25 25 25 26 27 28 29 30 31 33 35 37 39 41 43 45 46 48
19 18 18 18 18 18 18 18 18 19 19 18 18 19 19 20 20 21 21 22 22 23 24 24 25 26 26 27 28 29 30 31 32 34 36 37 39 41 43 45 47 48 49
20 20 19 19 19 19 19 19 19 19 19 19 19 20 20 21 21 22 22 23 24 24 25 25 26 27 28 29 30 31 32 33 34 36 38 40 41 43 45 47 48 49 50
Wind_Direction
231 233 235 237 240 243 246 248 250 253 256 259 262 265 268 270 273 276 278 280 281 281 281 282 282 282 281 280 279 278 278 278 277 277 277 277 278 279 280 280 281 282 282
233 235 237 239 242 244 247 249 251 254 256 259 261 264 267 269 272 275 278 279 280 281 281 281 281 281 281 280 279 278 278 277 277 277 277 277 278 278 278 278 279 280 281
235 237 238 240 243 246 248 250 251 254 256 258 261 264 267 270 272 274 276 277 279 280 281 281 281 281 281 281 280 279 278 278 277 277 278 278 277 276 277 278 279 279 280
237 239 240 242 243 245 248 249 251 253 256 259 262 265 267 270 272 273 275 276 278 279 280 281 281 281 281 281 280 280 279 278 278 277 277 277 276 276 276 277 278 279 279
238 240 242 243 244 246 248 250 252 254 256 259 262 265 268 270 272 273 275 276 277 279 279 280 280 280 281 281 280 280 279 278 278 277 277 276 276 276 276 276 277 277 278
239 242 244 245 245 247 248 250 253 255 257 260 262 265 268 270 272 273 275 276 277 279 280 280 280 280 280 280 280 279 279 278 277 276 275 275 275 275 275 275 275 276 277
239 241 243 245 247 248 250 252 254 256 258 261 263 266 268 270 272 273 275 277 278 280 280 280 281 282 282 282 281 280 279 278 276 275 274 273 273 273 273 274 274 275 276
238 241 243 245 247 249 251 253 255 257 259 261 263 265 268 270 272 274 276 278 279 280 281 281 282 283 284 284 283 282 280 278 276 275 274 272 272 272 272 272 273 273 274
237 240 242 245 247 249 251 253 256 258 259 261 263 266 268 270 273 275 276 278 280 281 283 284 285 285 286 286 285 284 281 279 276 274 273 272 271 270 270 271 272 272 272
237 239 241 244 246 249 251 253 256 258 260 262 264 267 269 271 273 275 277 279 281 283 285 286 287 288 288 288 288 286 283 281 277 275 273 271 270 269 269 269 270 271 271
236 238 241 243 246 248 251 253 256 258 260 263 266 268 270 272 274 277 279 282 284 286 288 289 291 291 291 290 291 289 287 283 280 277 274 271 269 268 267 266 267 268 269
236 238 240 243 246 248 251 253 256 259 262 264 267 269 272 274 277 279 282 284 287 290 292 294 294 295 294 294 293 292 291 288 285 281 276 273 270 268 267 267 266 266 268
236 238 240 243 246 248 251 254 257 260 263 265 268 271 274 276 278 281 284 287 290 293 296 297 299 299 298 297 296 296 295 292 288 284 279 275 272 269 267 267 266 267 268
237 239 241 243 246 249 252 254 257 260 263 266 269 272 274 277 280 283 287 290 294 297 299 300 303 304 303 302 301 300 299 296 292 287 283 278 273 270 268 268 268 268 269
238 240 242 244 247 250 253 256 259 261 264 267 269 271 274 278 282 285 288 292 296 298 300 302 305 307 307 307 307 305 303 301 297 292 287 282 277 273 272 272 272 272 274
240 242 245 246 248 251 254 256 259 261 265 267 269 272 276 280 283 285 288 292 296 299 301 305 308 309 310 309 309 309 307 304 301 296 290 286 283 280 278 276 275 277 279
243 245 247 249 251 253 255 257 259 261 264 268 271 274 277 280 283 286 289 292 295 299 302 306 309 310 312 312 312 312 311 309 306 302 298 292 288 288 287 284 283 283 284
245 247 249 250 252 253 255 257 258 261 266 270 272 274 277 280 283 287 290 292 295 299 303 307 311 313 313 314 313 315 316 313 310 305 300 296 293 291 290 289 289 290 291
246 247 249 250 251 253 254 255 259 264 268 271 272 274 277 281 284 287 289 292 296 300 303 306 309 312 313 314 315 315 315 314 313 310 305 302 300 299 298 297 295 295 294
246 247 249 249 251 253 254 256 261 266 269 271 272 274 278 282 285 287 289 292 297 300 304 305 307 310 312 313 314 315 315 314 314 312 310 307 305 304 303 303 302 301 300
247 247 248 249 251 253 255 258 262 266 270 271 274 276 279 282 284 287 290 293 296 300 303 305 307 309 311 312 315 315 315 314 313 311 310 309 308 307 307 306 306 305 304
247 248 249 251 252 254 256 260 263 266 270 273 276 278 280 282 284 287 290 293 296 299 302 304 305 308 310 312 313 314 314 313 313 312 311 311 311 310 309 309 308 308 308
248 249 251 253 254 256 259 262 264 267 272 275 277 279 281 282 284 288 291 293 296 299 301 303 305 308 310 311 312 312 312 313 313 313 313 313 312 312 311 311 311 311 311
250 251 253 256 258 260 262 264 265 269 273 275 277 279 281 282 284 288 291 293 296 299 301 304 306 307 308 309 310 312 313 313 313 313 314 314 314 314 313 313 313 313 313
252 253 255 258 260 262 264 265 266 269 272 275 277 279 281 282 285 288 291 294 297 299 301 304 306 307 308 309 310 312 312 313 313 314 314 315 315 315 315 314 314 315 315
252 254 256 259 261 263 264 265 267 269 271 273 276 279 281 283 285 288 292 295 297 299 301 304 305 307 308 309 310 311 312 313 314 314 315 316 316 316 316 315 315 316 316